Home   Weather   Barrow   Past weeks
Flag for USA

Past Weather in Barrow, Alaska, USA — Yesterday and Last 2 Weeks

Now
42 °F

Sunny.


Feels Like: 38 °F
Forecast: 54 / 42 °F
Wind: 6 mph from East

Location: Post Rogers Memorial Airport

Current Time: Jun 26, 2019 at 2:07:33 am

Latest Report: Jun 26, 2019 at 12:53 am


Visibility: 10 mi

Pressure: 30.30 "Hg

Humidity: 71%

Dew Point: 33 °F

Location of BarrowLocation

Past Weather in Barrow — Graph

°F

Barrow Temperature Yesterday

Maximum temperature yesterday: 46 °F (at 6:53 pm)
Minimum temperature yesterday: 32 °F (at 2:21 am)
Average temperature yesterday: 37 °F

High & Low Weather Summary for the Past Weeks

 TemperatureHumidityPressure
High72 °F (Jun 20, 6:53 pm)100% (Jun 11, 2:53 am)30.33 "Hg (Jun 11, 2:53 am)
Low28 °F (Jun 11, 4:02 am)41% (Jun 21, 8:53 am)29.68 "Hg (Jun 13, 6:53 am)
Average38 °F83%30.05 "Hg
* Reported Jun 11 12:37 am — Jun 26 12:53 am, Barrow. Weather by CustomWeather, © 2019

Note: Actual official high and low records may vary slightly from our data, if they occured in-between our weather recording intervals... More about our weather records

Advertising

Barrow Weather History for the Previous 24 Hours

Scroll right to see more
 ConditionsComfort  
Time TempWeatherWind HumidityBarometerVisibility
12:53 am
Wed, Jun 26
42 °FSunny.6 mph71%30.30 "Hg10 mi
11:53 pm
Tue, Jun 25
42 °FSunny.7 mph65%30.30 "Hg10 mi
10:53 pm44 °FSunny.7 mph58%30.31 "Hg10 mi
9:53 pm45 °FSunny.7 mph58%30.31 "Hg10 mi
8:53 pm46 °FSunny.6 mph56%30.32 "Hg10 mi
7:53 pm46 °FSunny.7 mph56%30.32 "Hg10 mi
6:53 pm46 °FSunny.7 mph61%30.32 "Hg10 mi
5:53 pm45 °FSunny.8 mph63%30.32 "Hg10 mi
4:53 pm45 °FSunny.7 mph63%30.33 "Hg10 mi
3:53 pm44 °FSunny.8 mph65%30.33 "Hg10 mi
2:53 pm44 °FSunny.7 mph65%30.33 "Hg10 mi
1:53 pm42 °FSunny.7 mph71%30.33 "Hg10 mi
12:53 pm42 °FSunny.7 mph73%30.32 "Hg10 mi
11:53 am41 °FSunny.6 mph74%30.32 "Hg10 mi
10:53 am37 °FPassing clouds.7 mph86%30.32 "Hg10 mi
9:53 am36 °FFog.7 mph85%30.31 "Hg4 mi
9:37 am35 °FFog.6 mph88%30.31 "Hg2 mi
8:53 am34 °FFog.8 mph88%30.31 "Hg3 mi
7:55 am33 °FFog.6 mph92%30.30 "Hg1 mi
6:53 am32 °FIce fog.5 mph96%30.30 "Hg1 mi
5:53 am32 °FIce fog.7 mph96%30.29 "Hg1 mi
5:42 am32 °FIce fog.7 mph96%30.29 "Hg1 mi
4:53 am32 °FIce fog.6 mph92%30.29 "Hg1 mi
4:19 am32 °FIce fog.7 mph92%30.29 "Hg4 mi
4:10 am32 °FIce fog.8 mph92%30.29 "Hg2 mi
3:40 am32 °FIce fog.8 mph92%30.29 "Hg3 mi
3:32 am32 °FIce fog.8 mph92%30.29 "Hg2 mi
2:53 am32 °FLow clouds.8 mph92%30.29 "Hg7 mi
2:21 am32 °FIce fog.7 mph96%30.28 "Hg6 mi
2:14 am33 °FFog.7 mph92%30.28 "Hg2 mi
Weather by CustomWeather, © 2019

See weather overview